This demonstration page uses our WeatherBlox Daily Observations layout. Learn more.

Left ArrowRight Arrow

39.92423, -83.80882

Hourly Observations for March 23, 2022

Temp ( °F °C ) Dew Point ( °F °C ) Humidity (%) Winds ( mph kmh ) Pressure ( in mb ) Visibility ( mi km ) Precip ( " mm )
12:56 am 00:56 Cloudy 54 12.2 43 6.1 67 67 ESE 12 19 29.79 1009 10 16 0.00 0.00
1:56 am 01:56 Cloudy with Light Rain 51 10.6 46 7.8 83 83 ESE 9 15 29.80 1009 10 16 0.00 0.00
2:56 am 02:56 Cloudy with Light Rain 51 10.6 48 8.9 89 89 ESE 13 20 29.76 1008 10 16 0.00 0.00
3:56 am 03:56 Mostly Cloudy 51 10.6 48 8.9 89 89 E 13 20 29.72 1006 10 16 0.00 0.00
4:56 am 04:56 Mostly Cloudy 53 11.7 47 8.3 80 80 SE 14 22 29.69 1005 10 16 0.00 0.00
5:56 am 05:56 Cloudy 54 12.2 48 8.9 80 80 SE 13 20 29.68 1005 10 16 0.00 0.00
6:56 am 06:56 Cloudy 54 12.2 51 10.6 90 90 ESE 15 24 29.67 1005 10 16 0.00 0.00
7:56 am 07:56 Cloudy 54 12.2 51 10.6 90 90 SE 16 26 29.67 1005 10 16 0.00 0.00
8:56 am 08:56 Cloudy 55 12.8 53 11.7 93 93 SE 17 28 29.66 1005 10 16 0.00 0.00
9:56 am 09:56 Cloudy 59 15 54 12.2 83 83 SE 15 24 29.65 1004 10 16 0.00 0.00
10:56 am 10:56 Cloudy 61 16.1 54 12.2 78 78 SE 18 30 29.63 1004 10 16 0.00 0.00
11:56 am 11:56 Cloudy 64 17.8 55 12.8 73 73 SSE 17 28 29.60 1003 10 16 0.00 0.00
12:56 pm 12:56 Cloudy 63 17.2 56 13.3 78 78 SE 14 22 29.57 1002 10 16 0.00 0.00
1:08 pm 13:08 Cloudy 63 17 57 14 83 83 SSE 16 26 29.55 1001 10 16 0.00 0.00
1:16 pm 13:16 Mostly Cloudy 63 17 61 16 94 94 SSE 20 31 29.55 1001 10 16 0.00 0.00
1:48 pm 13:48 Cloudy with Light Rain 61 16 N/A N/A SSE 15 24 29.56 1001 10 16 0.00 0.00
1:56 pm 13:56 Cloudy with Light Rain 61 16 N/A N/A SSE 14 22 29.57 1001 10 16 0.00 0.00
2:22 pm 14:22 Cloudy 63 17 N/A N/A SE 15 24 29.51 999 10 16 0.00 0.00
2:39 pm 14:39 Cloudy 63 17 N/A N/A SSE 15 24 29.51 999 10 16 0.00 0.00
2:56 pm 14:56 Cloudy 63 17 N/A N/A SSE 16 26 29.51 999 10 16 0.00 0.00
3:46 pm 15:46 Mostly Cloudy 64 18 N/A N/A S 13 20 29.47 998 10 16 0.00 0.00
3:56 pm 15:56 Mostly Cloudy 63 17 N/A N/A SSE 13 20 29.48 998 10 16 0.00 0.00
4:56 pm 16:56 Mostly Cloudy 66 18.9 58 14.4 75 75 WSW 20 31 29.49 999 10 16 0.00 0.00
5:56 pm 17:56 Mostly Sunny 67 19.4 48 8.9 51 51 SW 29 46 29.48 998 10 16 0.00 0.00
6:56 pm 18:56 Mostly Sunny 61 16.1 53 11.7 75 75 WSW 18 30 29.54 1000 10 16 0.00 0.00
7:56 pm 19:56 Clear 60 15.6 48 8.9 65 65 WSW 16 26 29.57 1001 10 16 0.00 0.00
8:56 pm 20:56 Mostly Cloudy 56 13.3 50 10 81 81 W 20 31 29.62 1003 10 16 0.00 0.00
9:28 pm 21:28 Mostly Cloudy 54 12 48 9 82 82 WSW 22 35 29.66 1005 10 16 0.00 0.00
9:56 pm 21:56 Cloudy 52 11.1 45 7.2 77 77 WSW 24 39 29.67 1005 10 16 0.00 0.00
10:56 pm 22:56 Clear 49 9.4 41 5 74 74 WSW 22 35 29.71 1006 10 16 0.00 0.00
11:56 pm 23:56 Partly Cloudy 47 8.3 42 5.6 83 83 WSW 15 24 29.72 1007 10 16 0.00 0.00

Powered by AerisWeather